Time,TemperatureF,DewpointF,PressureIn,WindDirection,WindDirectionDegrees,WindSpeedMPH,WindSpeedGustMPH,Humidity,HourlyPrecipIn,Conditions,Clouds,dailyrainin,SoftwareType,DateUTC
2013-04-02 00:00:00,56.0,34.8,29.85,NE,45,0.7,2.0,45,0.00,,,0.02,WUHU216HW,2013-04-02 04:00:00,
2013-04-02 00:05:00,55.8,34.7,29.85,North,0,0.4,2.0,45,0.00,,,0.00,WUHU216HW,2013-04-02 04:05:00,
2013-04-02 00:10:00,55.4,34.3,29.85,WSW,248,0.4,1.3,45,0.00,,,0.00,WUHU216HW,2013-04-02 04:10:00,
2013-04-02 00:15:00,55.3,34.7,29.85,NW,315,0.2,1.6,46,0.00,,,0.00,WUHU216HW,2013-04-02 04:15:00,
2013-04-02 00:20:00,55.3,34.7,29.85,SW,225,0.2,1.8,46,0.00,,,0.00,WUHU216HW,2013-04-02 04:20:00,
2013-04-02 00:25:00,55.1,34.6,29.85,WSW,248,0.0,1.8,46,0.00,,,0.00,WUHU216HW,2013-04-02 04:25:00,
2013-04-02 00:30:00,54.7,34.2,29.85,WSW,248,0.4,1.1,46,0.00,,,0.00,WUHU216HW,2013-04-02 04:30:00,
2013-04-02 00:35:00,54.5,34.0,29.85,WSW,248,0.0,0.4,46,0.00,,,0.00,WUHU216HW,2013-04-02 04:35:00,
2013-04-02 00:40:00,54.4,33.8,29.85,WSW,248,0.2,0.7,46,0.00,,,0.00,WUHU216HW,2013-04-02 04:40:00,
2013-04-02 00:45:00,54.0,33.6,29.85,WSW,248,0.0,1.1,46,0.00,,,0.00,WUHU216HW,2013-04-02 04:45:00,
2013-04-02 00:50:00,53.6,33.2,29.85,NW,315,0.0,1.1,46,0.00,,,0.00,WUHU216HW,2013-04-02 04:50:00,
2013-04-02 00:55:00,53.6,33.8,29.85,NW,315,0.0,0.7,47,0.00,,,0.00,WUHU216HW,2013-04-02 04:55:00,
2013-04-02 01:00:00,53.1,34.4,29.85,ENE,68,1.8,2.2,49,0.00,,,0.00,WUHU216HW,2013-04-02 05:00:00,
2013-04-02 01:05:00,52.2,34.2,29.86,NE,45,0.4,2.7,50,0.00,,,0.00,WUHU216HW,2013-04-02 05:05:00,
2013-04-02 01:10:00,52.0,34.5,29.85,ENE,68,0.4,2.7,51,0.00,,,0.00,WUHU216HW,2013-04-02 05:10:00,
2013-04-02 01:15:00,52.2,34.7,29.85,ENE,68,0.4,1.3,51,0.00,,,0.00,WUHU216HW,2013-04-02 05:15:00,
2013-04-02 01:20:00,52.2,34.2,29.86,ENE,68,0.4,1.1,50,0.00,,,0.00,WUHU216HW,2013-04-02 05:20:00,
2013-04-02 01:25:00,52.6,33.9,29.86,NNE,23,0.4,1.1,49,0.00,,,0.00,WUHU216HW,2013-04-02 05:25:00,
2013-04-02 01:30:00,52.9,33.7,29.87,NNE,23,0.4,1.1,48,0.00,,,0.00,WUHU216HW,2013-04-02 05:30:00,
2013-04-02 01:35:00,52.9,33.7,29.87,NNE,23,0.0,0.4,48,0.00,,,0.00,WUHU216HW,2013-04-02 05:35:00,
2013-04-02 01:40:00,52.6,33.4,29.87,NNE,23,0.7,0.7,48,0.00,,,0.00,WUHU216HW,2013-04-02 05:40:00,
2013-04-02 01:45:00,52.6,33.4,29.87,NNE,23,0.0,1.1,48,0.00,,,0.00,WUHU216HW,2013-04-02 05:45:00,
2013-04-02 01:50:00,52.4,33.8,29.87,NNE,23,0.4,1.1,49,0.00,,,0.00,WUHU216HW,2013-04-02 05:50:00,
2013-04-02 01:55:00,52.4,33.8,29.87,NE,45,0.0,1.8,49,0.00,,,0.00,WUHU216HW,2013-04-02 05:55:00,
2013-04-02 02:00:00,52.2,33.6,29.87,NE,45,0.4,1.8,49,0.00,,,0.00,WUHU216HW,2013-04-02 06:00:00,
2013-04-02 02:05:00,51.7,33.1,29.87,NE,45,0.0,0.4,49,0.00,,,0.00,WUHU216HW,2013-04-02 06:05:00,
2013-04-02 02:10:00,51.1,33.2,29.87,NE,45,0.0,0.4,50,0.00,,,0.00,WUHU216HW,2013-04-02 06:10:00,
2013-04-02 02:15:00,50.6,32.7,29.87,NE,45,0.2,0.9,50,0.00,,,0.00,WUHU216HW,2013-04-02 06:15:00,
2013-04-02 02:20:00,50.4,33.0,29.87,NE,45,0.0,0.9,51,0.00,,,0.00,WUHU216HW,2013-04-02 06:20:00,
2013-04-02 02:25:00,50.0,32.7,29.87,ENE,68,0.2,0.2,51,0.00,,,0.00,WUHU216HW,2013-04-02 06:25:00,
2013-04-02 02:30:00,49.9,32.5,29.87,ENE,68,0.0,0.2,51,0.00,,,0.00,WUHU216HW,2013-04-02 06:30:00,
2013-04-02 02:35:00,49.5,32.6,29.87,NE,45,0.0,0.4,52,0.00,,,0.00,WUHU216HW,2013-04-02 06:35:00,
2013-04-02 02:40:00,49.1,32.2,29.87,ENE,68,0.2,0.4,52,0.00,,,0.00,WUHU216HW,2013-04-02 06:40:00,
2013-04-02 02:45:00,48.8,32.3,29.87,NE,45,0.0,0.2,53,0.00,,,0.00,WUHU216HW,2013-04-02 06:45:00,
2013-04-02 02:50:00,48.6,32.7,29.87,ENE,68,0.0,0.2,54,0.00,,,0.00,WUHU216HW,2013-04-02 06:50:00,
2013-04-02 02:55:00,48.1,32.6,29.87,NE,45,0.0,0.2,55,0.00,,,0.00,WUHU216HW,2013-04-02 06:55:00,
2013-04-02 03:00:00,47.9,32.9,29.87,ENE,68,0.9,0.9,56,0.00,,,0.00,WUHU216HW,2013-04-02 07:00:00,
2013-04-02 03:05:00,48.2,33.2,29.87,ENE,68,0.0,0.9,56,0.00,,,0.00,WUHU216HW,2013-04-02 07:05:00,
2013-04-02 03:10:00,48.8,33.3,29.87,NE,45,0.0,1.8,55,0.00,,,0.00,WUHU216HW,2013-04-02 07:10:00,
2013-04-02 03:15:00,49.0,33.5,29.87,NE,45,1.1,1.8,55,0.00,,,0.00,WUHU216HW,2013-04-02 07:15:00,
2013-04-02 03:20:00,49.1,33.1,29.87,NE,45,0.2,1.1,54,0.00,,,0.00,WUHU216HW,2013-04-02 07:20:00,
2013-04-02 03:25:00,49.1,33.1,29.88,NE,45,0.0,1.1,54,0.00,,,0.00,WUHU216HW,2013-04-02 07:25:00,
2013-04-02 03:30:00,48.8,32.9,29.88,NE,45,0.0,0.4,54,0.00,,,0.00,WUHU216HW,2013-04-02 07:30:00,
2013-04-02 03:35:00,48.2,32.3,29.88,NE,45,0.2,0.2,54,0.00,,,0.00,WUHU216HW,2013-04-02 07:35:00,
2013-04-02 03:40:00,47.7,32.2,29.88,NE,45,0.0,0.7,55,0.00,,,0.00,WUHU216HW,2013-04-02 07:40:00,
2013-04-02 03:45:00,47.2,31.8,29.88,NE,45,0.0,0.7,55,0.00,,,0.00,WUHU216HW,2013-04-02 07:45:00,
2013-04-02 03:50:00,47.2,32.2,29.88,NE,45,0.2,1.6,56,0.00,,,0.00,WUHU216HW,2013-04-02 07:50:00,
2013-04-02 03:55:00,47.2,32.2,29.88,ENE,68,0.4,1.6,56,0.00,,,0.00,WUHU216HW,2013-04-02 07:55:00,
2013-04-02 04:00:00,47.3,32.9,29.88,ENE,68,1.1,1.6,57,0.00,,,0.00,WUHU216HW,2013-04-02 08:00:00,
2013-04-02 04:05:00,47.7,33.2,29.88,NE,45,1.6,2.2,57,0.00,,,0.00,WUHU216HW,2013-04-02 08:05:00,
2013-04-02 04:10:00,47.9,33.4,29.88,NE,45,1.3,2.5,57,0.00,,,0.00,WUHU216HW,2013-04-02 08:10:00,
2013-04-02 04:15:00,47.7,33.2,29.88,NNE,23,1.3,2.5,57,0.00,,,0.00,WUHU216HW,2013-04-02 08:15:00,
2013-04-02 04:20:00,47.7,33.2,29.88,NNE,23,2.2,4.7,57,0.00,,,0.00,WUHU216HW,2013-04-02 08:20:00,
2013-04-02 04:25:00,47.7,33.2,29.89,NE,45,1.6,4.7,57,0.00,,,0.00,WUHU216HW,2013-04-02 08:25:00,
2013-04-02 04:30:00,47.9,32.9,29.89,NNE,23,2.2,5.4,56,0.00,,,0.00,WUHU216HW,2013-04-02 08:30:00,
2013-04-02 04:35:00,47.9,32.9,29.89,ENE,68,0.9,5.4,56,0.00,,,0.00,WUHU216HW,2013-04-02 08:35:00,
2013-04-02 04:40:00,47.7,32.7,29.90,NE,45,0.4,3.1,56,0.00,,,0.00,WUHU216HW,2013-04-02 08:40:00,
2013-04-02 04:45:00,47.5,32.6,29.90,NE,45,0.2,2.5,56,0.00,,,0.00,WUHU216HW,2013-04-02 08:45:00,
2013-04-02 04:50:00,47.2,32.2,29.90,NE,45,0.0,0.7,56,0.00,,,0.00,WUHU216HW,2013-04-02 08:50:00,
2013-04-02 04:55:00,46.8,32.3,29.90,NE,45,0.4,0.4,57,0.00,,,0.00,WUHU216HW,2013-04-02 08:55:00,
2013-04-02 05:00:00,46.3,31.8,29.90,SSW,203,1.1,1.1,57,0.00,,,0.00,WUHU216HW,2013-04-02 09:00:00,
2013-04-02 05:05:00,45.7,31.8,29.90,SSW,203,0.4,1.8,58,0.00,,,0.00,WUHU216HW,2013-04-02 09:05:00,
2013-04-02 05:10:00,45.0,32.1,29.90,SSW,203,0.2,1.8,60,0.00,,,0.00,WUHU216HW,2013-04-02 09:10:00,
2013-04-02 05:15:00,44.3,32.5,29.91,SSW,203,0.0,1.1,63,0.00,,,0.00,WUHU216HW,2013-04-02 09:15:00,
2013-04-02 05:20:00,44.1,32.3,29.91,SSW,203,0.0,1.1,63,0.00,,,0.00,WUHU216HW,2013-04-02 09:20:00,
2013-04-02 05:25:00,43.7,32.0,29.92,SSW,203,0.0,0.4,63,0.00,,,0.00,WUHU216HW,2013-04-02 09:25:00,
2013-04-02 05:30:00,43.6,31.4,29.92,SSE,158,0.0,0.7,62,0.00,,,0.00,WUHU216HW,2013-04-02 09:30:00,
2013-04-02 05:35:00,43.6,31.8,29.92,SSW,203,0.9,0.9,63,0.00,,,0.00,WUHU216HW,2013-04-02 09:35:00,
2013-04-02 05:40:00,43.2,31.4,29.93,SSW,203,0.0,1.6,63,0.00,,,0.00,WUHU216HW,2013-04-02 09:40:00,
2013-04-02 05:45:00,42.8,31.1,29.93,SSW,203,0.0,1.6,63,0.00,,,0.00,WUHU216HW,2013-04-02 09:45:00,
2013-04-02 05:50:00,42.7,31.3,29.93,SSW,203,0.0,0.7,64,0.00,,,0.00,WUHU216HW,2013-04-02 09:50:00,
2013-04-02 05:55:00,42.3,31.3,29.93,SSW,203,0.2,0.7,65,0.00,,,0.00,WUHU216HW,2013-04-02 09:55:00,
2013-04-02 06:00:00,42.8,32.2,29.93,ENE,68,0.0,1.6,66,0.00,,,0.00,WUHU216HW,2013-04-02 10:00:00,
2013-04-02 06:05:00,43.2,31.8,29.93,ENE,68,0.0,1.6,64,0.00,,,0.00,WUHU216HW,2013-04-02 10:05:00,
2013-04-02 06:10:00,43.0,31.7,29.93,ENE,68,0.0,0.0,64,0.00,,,0.00,WUHU216HW,2013-04-02 10:10:00,
2013-04-02 06:15:00,42.8,31.9,29.93,NE,45,0.4,1.6,65,0.00,,,0.00,WUHU216HW,2013-04-02 10:15:00,
2013-04-02 06:20:00,43.2,32.6,29.93,NNE,23,1.3,1.8,66,0.00,,,0.00,WUHU216HW,2013-04-02 10:20:00,
2013-04-02 06:25:00,43.6,33.0,29.93,ENE,68,0.4,1.8,66,0.00,,,0.00,WUHU216HW,2013-04-02 10:25:00,
2013-04-02 06:30:00,43.6,32.6,29.93,East,90,0.4,2.0,65,0.00,,,0.00,WUHU216HW,2013-04-02 10:30:00,
2013-04-02 06:35:00,43.6,32.6,29.94,NNE,23,0.4,2.0,65,0.00,,,0.00,WUHU216HW,2013-04-02 10:35:00,
2013-04-02 06:40:00,43.7,32.8,29.95,ENE,68,0.7,2.5,65,0.00,,,0.00,WUHU216HW,2013-04-02 10:40:00,
2013-04-02 06:45:00,43.9,32.9,29.95,NE,45,1.6,2.9,65,0.00,,,0.00,WUHU216HW,2013-04-02 10:45:00,
2013-04-02 06:50:00,43.7,33.1,29.96,NNE,23,0.4,2.9,66,0.00,,,0.00,WUHU216HW,2013-04-02 10:50:00,
2013-04-02 06:55:00,43.7,32.8,29.95,East,90,0.7,2.0,65,0.00,,,0.00,WUHU216HW,2013-04-02 10:55:00,
2013-04-02 07:00:00,43.7,32.3,29.96,ENE,68,0.2,1.3,64,0.00,,,0.00,WUHU216HW,2013-04-02 11:00:00,
2013-04-02 07:05:00,43.4,32.0,29.96,ENE,68,0.0,0.7,64,0.00,,,0.00,WUHU216HW,2013-04-02 11:05:00,
2013-04-02 07:10:00,42.8,31.9,29.96,ENE,68,0.0,0.7,65,0.00,,,0.00,WUHU216HW,2013-04-02 11:10:00,
2013-04-02 07:15:00,42.3,31.3,29.96,ENE,68,0.0,0.7,65,0.00,,,0.00,WUHU216HW,2013-04-02 11:15:00,
2013-04-02 07:20:00,41.9,31.4,29.96,NE,45,0.0,1.8,66,0.00,,,0.00,WUHU216HW,2013-04-02 11:20:00,
2013-04-02 07:25:00,41.8,31.6,29.96,NE,45,0.0,1.8,67,0.00,,,0.00,WUHU216HW,2013-04-02 11:25:00,
2013-04-02 07:30:00,41.6,31.4,29.96,ENE,68,0.2,1.1,67,0.00,,,0.00,WUHU216HW,2013-04-02 11:30:00,
2013-04-02 07:35:00,41.9,31.8,29.97,NE,45,1.1,1.1,67,0.00,,,0.00,WUHU216HW,2013-04-02 11:35:00,
2013-04-02 07:40:00,42.3,31.8,29.97,NE,45,1.1,2.5,66,0.00,,,0.00,WUHU216HW,2013-04-02 11:40:00,
2013-04-02 07:45:00,42.8,31.9,29.97,ENE,68,1.3,2.5,65,0.00,,,0.00,WUHU216HW,2013-04-02 11:45:00,
2013-04-02 07:50:00,43.4,32.0,29.98,North,0,1.1,1.8,64,0.00,,,0.00,WUHU216HW,2013-04-02 11:50:00,
2013-04-02 07:55:00,43.4,32.0,29.98,NNE,23,0.0,1.3,64,0.00,,,0.00,WUHU216HW,2013-04-02 11:55:00,
2013-04-02 08:00:00,43.0,32.1,29.98,NNE,23,0.0,1.1,65,0.00,,,0.00,WUHU216HW,2013-04-02 12:00:00,
2013-04-02 08:05:00,42.8,31.9,29.99,NNE,23,0.0,0.2,65,0.00,,,0.00,WUHU216HW,2013-04-02 12:05:00,
2013-04-02 08:10:00,42.7,32.0,29.99,NNE,23,0.2,0.4,66,0.00,,,0.00,WUHU216HW,2013-04-02 12:10:00,
2013-04-02 08:15:00,42.7,32.9,30.00,West,270,0.7,1.1,68,0.00,,,0.00,WUHU216HW,2013-04-02 12:15:00,
2013-04-02 08:20:00,42.5,33.5,30.00,WSW,248,1.3,2.2,70,0.00,,,0.00,WUHU216HW,2013-04-02 12:20:00,
2013-04-02 08:25:00,42.7,34.0,30.00,WSW,248,0.2,2.2,71,0.00,,,0.00,WUHU216HW,2013-04-02 12:25:00,
2013-04-02 08:30:00,42.7,33.7,30.00,WSW,248,0.4,1.3,70,0.00,,,0.00,WUHU216HW,2013-04-02 12:30:00,
2013-04-02 08:35:00,43.2,33.4,30.00,ENE,68,1.3,1.3,68,0.00,,,0.00,WUHU216HW,2013-04-02 12:35:00,
2013-04-02 08:40:00,43.9,33.3,30.00,NE,45,0.9,1.8,66,0.00,,,0.00,WUHU216HW,2013-04-02 12:40:00,
2013-04-02 08:45:00,44.6,33.2,30.00,NNE,23,1.8,2.2,64,0.00,,,0.00,WUHU216HW,2013-04-02 12:45:00,
2013-04-02 08:50:00,45.4,33.1,30.00,NE,45,1.3,3.1,62,0.00,,,0.00,WUHU216HW,2013-04-02 12:50:00,
2013-04-02 08:55:00,45.7,33.0,30.01,ENE,68,2.7,3.1,61,0.00,,,0.00,WUHU216HW,2013-04-02 12:55:00,
2013-04-02 09:00:00,46.3,32.7,30.00,WNW,293,1.1,5.4,59,0.00,,,0.00,WUHU216HW,2013-04-02 13:00:00,
2013-04-02 09:05:00,46.6,32.6,30.00,ENE,68,1.8,5.4,58,0.00,,,0.00,WUHU216HW,2013-04-02 13:05:00,
2013-04-02 09:10:00,47.2,32.7,30.00,ENE,68,3.8,4.0,57,0.00,,,0.00,WUHU216HW,2013-04-02 13:10:00,
2013-04-02 09:15:00,47.5,32.0,30.00,NE,45,2.2,5.1,55,0.00,,,0.00,WUHU216HW,2013-04-02 13:15:00,
2013-04-02 09:20:00,47.7,32.2,30.00,SSW,203,0.0,5.1,55,0.00,,,0.00,WUHU216HW,2013-04-02 13:20:00,
2013-04-02 09:25:00,48.1,32.1,30.00,NE,45,0.4,3.4,54,0.00,,,0.00,WUHU216HW,2013-04-02 13:25:00,
2013-04-02 09:30:00,48.2,32.3,30.00,NE,45,0.4,2.9,54,0.00,,,0.00,WUHU216HW,2013-04-02 13:30:00,
2013-04-02 09:35:00,48.6,32.7,30.01,North,0,2.0,3.4,54,0.00,,,0.00,WUHU216HW,2013-04-02 13:35:00,
2013-04-02 09:40:00,48.8,32.3,30.01,West,270,1.1,3.4,53,0.00,,,0.00,WUHU216HW,2013-04-02 13:40:00,
2013-04-02 09:45:00,49.0,32.5,30.01,NNE,23,0.4,2.0,53,0.00,,,0.00,WUHU216HW,2013-04-02 13:45:00,
2013-04-02 09:50:00,49.3,32.9,30.01,NNE,23,0.7,1.6,53,0.00,,,0.00,WUHU216HW,2013-04-02 13:50:00,
2013-04-02 09:55:00,49.7,33.7,30.01,NNE,23,0.0,1.6,54,0.00,,,0.00,WUHU216HW,2013-04-02 13:55:00,
2013-04-02 10:00:00,50.2,33.3,30.00,NW,315,0.9,4.5,52,0.00,,,0.00,WUHU216HW,2013-04-02 14:00:00,
2013-04-02 10:05:00,50.6,33.6,30.00,ENE,68,1.3,4.5,52,0.00,,,0.00,WUHU216HW,2013-04-02 14:05:00,
2013-04-02 10:10:00,50.8,32.9,30.01,North,0,0.9,4.0,50,0.00,,,0.00,WUHU216HW,2013-04-02 14:10:00,
2013-04-02 10:15:00,51.1,33.2,30.00,NNW,338,0.4,4.0,50,0.00,,,0.00,WUHU216HW,2013-04-02 14:15:00,
2013-04-02 10:20:00,51.5,33.5,30.01,NE,45,1.8,3.4,50,0.00,,,0.00,WUHU216HW,2013-04-02 14:20:00,
2013-04-02 10:25:00,51.8,33.3,30.01,ENE,68,2.5,3.4,49,0.00,,,0.00,WUHU216HW,2013-04-02 14:25:00,
2013-04-02 10:30:00,52.0,33.5,30.01,WNW,293,0.2,3.4,49,0.00,,,0.00,WUHU216HW,2013-04-02 14:30:00,
2013-04-02 10:35:00,52.4,33.8,30.01,WNW,293,0.0,2.5,49,0.00,,,0.00,WUHU216HW,2013-04-02 14:35:00,
2013-04-02 10:40:00,52.9,34.3,30.01,SSW,203,0.7,4.7,49,0.00,,,0.00,WUHU216HW,2013-04-02 14:40:00,
2013-04-02 10:45:00,53.3,34.6,30.01,NE,45,0.7,4.7,49,0.00,,,0.00,WUHU216HW,2013-04-02 14:45:00,
2013-04-02 10:50:00,53.8,34.5,30.01,NW,315,1.1,4.5,48,0.00,,,0.00,WUHU216HW,2013-04-02 14:50:00,
2013-04-02 10:55:00,54.2,34.3,30.01,SW,225,0.9,4.5,47,0.00,,,0.00,WUHU216HW,2013-04-02 14:55:00,
2013-04-02 11:00:00,54.4,34.5,30.02,SW,225,0.4,5.6,47,0.00,,,0.00,WUHU216HW,2013-04-02 15:00:00,
2013-04-02 11:05:00,55.1,35.6,30.01,WSW,248,0.4,5.6,48,0.00,,,0.00,WUHU216HW,2013-04-02 15:05:00,
2013-04-02 11:10:00,55.8,36.4,30.02,SW,225,0.4,4.9,48,0.00,,,0.00,WUHU216HW,2013-04-02 15:10:00,
2013-04-02 11:15:00,56.7,35.5,30.02,WSW,248,4.0,4.7,45,0.00,,,0.00,WUHU216HW,2013-04-02 15:15:00,
2013-04-02 11:20:00,57.1,35.8,30.01,NW,315,3.1,4.7,45,0.00,,,0.00,WUHU216HW,2013-04-02 15:20:00,
2013-04-02 11:25:00,57.6,36.4,30.01,SW,225,0.4,4.5,45,0.00,,,0.00,WUHU216HW,2013-04-02 15:25:00,
2013-04-02 11:30:00,58.3,36.4,30.01,NNE,23,0.0,4.5,44,0.00,,,0.00,WUHU216HW,2013-04-02 15:30:00,
2013-04-02 11:35:00,59.2,35.5,30.01,West,270,3.6,3.6,41,0.00,,,0.00,WUHU216HW,2013-04-02 15:35:00,
2013-04-02 11:40:00,59.4,36.8,30.01,SSW,203,1.3,3.6,43,0.00,,,0.00,WUHU216HW,2013-04-02 15:40:00,
2013-04-02 11:45:00,60.1,36.9,30.01,SSW,203,3.4,4.7,42,0.00,,,0.00,WUHU216HW,2013-04-02 15:45:00,
2013-04-02 11:50:00,60.5,36.6,30.01,SSE,158,3.6,6.9,41,0.00,,,0.00,WUHU216HW,2013-04-02 15:50:00,
2013-04-02 11:55:00,60.8,36.9,30.01,SW,225,1.8,6.9,41,0.00,,,0.00,WUHU216HW,2013-04-02 15:55:00,
2013-04-02 12:00:00,61.4,36.8,30.01,SW,225,0.2,7.2,40,0.00,,,0.00,WUHU216HW,2013-04-02 16:00:00,
2013-04-02 12:05:00,61.7,37.2,30.01,WSW,248,3.8,7.2,40,0.00,,,0.00,WUHU216HW,2013-04-02 16:05:00,
2013-04-02 12:10:00,61.9,37.4,30.01,SW,225,0.4,6.7,40,0.00,,,0.00,WUHU216HW,2013-04-02 16:10:00,
2013-04-02 12:15:00,62.3,36.2,30.01,NNW,338,2.7,5.1,38,0.00,,,0.00,WUHU216HW,2013-04-02 16:15:00,
2013-04-02 12:21:00,62.1,36.1,30.01,SSW,203,5.4,5.4,38,0.00,,,0.00,WUHU216HW,2013-04-02 16:21:00,
2013-04-02 12:26:00,62.1,36.8,30.01,SSW,203,6.9,6.9,39,0.00,,,0.00,WUHU216HW,2013-04-02 16:26:00,
2013-04-02 12:31:00,61.9,35.2,30.00,WSW,248,3.4,9.6,37,0.00,,,0.00,WUHU216HW,2013-04-02 16:31:00,
2013-04-02 12:36:00,61.6,35.6,30.00,SW,225,4.3,9.6,38,0.00,,,0.00,WUHU216HW,2013-04-02 16:36:00,
2013-04-02 12:41:00,62.1,36.1,30.00,SW,225,1.1,4.5,38,0.00,,,0.00,WUHU216HW,2013-04-02 16:41:00,
2013-04-02 12:46:00,62.5,36.4,30.00,NNE,23,1.8,4.0,38,0.00,,,0.00,WUHU216HW,2013-04-02 16:46:00,
2013-04-02 12:51:00,63.4,37.2,29.99,SSW,203,1.3,4.0,38,0.00,,,0.00,WUHU216HW,2013-04-02 16:51:00,
2013-04-02 12:56:00,64.1,37.1,29.99,SE,135,5.1,5.1,37,0.00,,,0.00,WUHU216HW,2013-04-02 16:56:00,
2013-04-02 13:01:00,64.1,37.1,29.99,NW,315,0.2,10.5,37,0.00,,,0.00,WUHU216HW,2013-04-02 17:01:00,
2013-04-02 13:06:00,64.8,37.8,29.99,South,180,2.5,10.5,37,0.00,,,0.00,WUHU216HW,2013-04-02 17:06:00,
2013-04-02 13:11:00,64.8,37.8,29.99,SW,225,0.2,4.0,37,0.00,,,0.00,WUHU216HW,2013-04-02 17:11:00,
2013-04-02 13:17:00,65.2,37.4,29.98,SW,225,1.6,5.4,36,0.00,,,0.00,WUHU216HW,2013-04-02 17:17:00,
2013-04-02 13:22:00,65.2,35.9,29.98,SSW,203,1.1,7.4,34,0.00,,,0.00,WUHU216HW,2013-04-02 17:22:00,
2013-04-02 13:27:00,65.3,35.4,29.98,ENE,68,3.4,7.4,33,0.00,,,0.00,WUHU216HW,2013-04-02 17:27:00,
2013-04-02 13:32:00,65.5,36.3,29.97,SW,225,0.7,3.4,34,0.00,,,0.00,WUHU216HW,2013-04-02 17:32:00,
2013-04-02 13:37:00,66.6,37.9,29.97,ENE,68,0.9,3.8,35,0.00,,,0.00,WUHU216HW,2013-04-02 17:37:00,
2013-04-02 13:42:00,67.3,37.1,29.96,ENE,68,1.8,4.3,33,0.00,,,0.00,WUHU216HW,2013-04-02 17:42:00,
2013-04-02 13:47:00,66.6,37.2,29.96,SW,225,2.5,4.3,34,0.00,,,0.00,WUHU216HW,2013-04-02 17:47:00,
2013-04-02 13:52:00,66.8,35.9,29.96,SSW,203,4.3,4.9,32,0.00,,,0.00,WUHU216HW,2013-04-02 17:52:00,
2013-04-02 13:57:00,66.8,35.9,29.96,SSW,203,3.6,5.1,32,0.00,,,0.00,WUHU216HW,2013-04-02 17:57:00,
2013-04-02 14:02:00,66.8,36.6,29.96,SSE,158,0.4,5.1,33,0.00,,,0.00,WUHU216HW,2013-04-02 18:02:00,
2013-04-02 14:08:00,67.9,37.5,29.95,SW,225,0.0,5.1,33,0.00,,,0.00,WUHU216HW,2013-04-02 18:08:00,
2013-04-02 14:13:00,69.1,37.2,29.95,SSW,203,3.6,3.6,31,0.00,,,0.00,WUHU216HW,2013-04-02 18:13:00,
2013-04-02 14:18:00,69.3,35.6,29.95,South,180,2.9,7.4,29,0.00,,,0.00,WUHU216HW,2013-04-02 18:18:00,
2013-04-02 14:23:00,68.9,35.3,29.95,SW,225,6.0,7.8,29,0.00,,,0.00,WUHU216HW,2013-04-02 18:23:00,
2013-04-02 14:28:00,68.9,36.3,29.95,SSW,203,0.9,7.8,30,0.00,,,0.00,WUHU216HW,2013-04-02 18:28:00,
2013-04-02 14:33:00,69.7,35.9,29.95,SSW,203,4.0,6.0,29,0.00,,,0.00,WUHU216HW,2013-04-02 18:33:00,
2013-04-02 14:38:00,70.0,38.0,29.94,South,180,0.4,4.7,31,0.00,,,0.00,WUHU216HW,2013-04-02 18:38:00,
2013-04-02 14:43:00,69.8,36.1,29.94,West,270,1.1,4.7,29,0.00,,,0.00,WUHU216HW,2013-04-02 18:43:00,
2013-04-02 14:48:00,69.8,35.1,29.94,WSW,248,4.3,4.3,28,0.00,,,0.00,WUHU216HW,2013-04-02 18:48:00,
2013-04-02 14:53:00,69.7,35.9,29.93,SW,225,2.5,6.0,29,0.00,,,0.00,WUHU216HW,2013-04-02 18:53:00,
2013-04-02 14:58:00,69.7,34.9,29.93,WSW,248,1.6,6.0,28,0.00,,,0.00,WUHU216HW,2013-04-02 18:58:00,
2013-04-02 15:03:00,69.5,32.8,29.93,North,0,2.0,4.0,26,0.00,,,0.00,WUHU216HW,2013-04-02 19:03:00,
2013-04-02 15:08:00,69.8,35.1,29.93,ENE,68,2.9,2.9,28,0.00,,,0.00,WUHU216HW,2013-04-02 19:08:00,
2013-04-02 15:13:00,70.7,33.9,29.92,SSE,158,0.4,2.9,26,0.00,,,0.00,WUHU216HW,2013-04-02 19:13:00,
2013-04-02 15:18:00,71.5,36.5,29.92,West,270,0.2,2.9,28,0.00,,,0.00,WUHU216HW,2013-04-02 19:18:00,
2013-04-02 15:23:00,72.0,36.9,29.92,WNW,293,1.1,2.0,28,0.00,,,0.00,WUHU216HW,2013-04-02 19:23:00,
2013-04-02 15:28:00,72.2,35.0,29.92,SSW,203,5.4,6.3,26,0.00,,,0.00,WUHU216HW,2013-04-02 19:28:00,
2013-04-02 15:33:00,71.8,34.7,29.91,SSW,203,2.5,6.3,26,0.00,,,0.00,WUHU216HW,2013-04-02 19:33:00,
2013-04-02 15:38:00,72.0,33.8,29.91,NE,45,4.0,6.3,25,0.00,,,0.00,WUHU216HW,2013-04-02 19:38:00,
2013-04-02 15:43:00,71.1,33.1,29.91,NNE,23,1.6,5.8,25,0.00,,,0.00,WUHU216HW,2013-04-02 19:43:00,
2013-04-02 15:48:00,72.0,33.8,29.90,SSW,203,6.5,8.3,25,0.00,,,0.00,WUHU216HW,2013-04-02 19:48:00,
2013-04-02 15:53:00,72.2,34.0,29.90,NNW,338,1.3,9.2,25,0.00,,,0.00,WUHU216HW,2013-04-02 19:53:00,
2013-04-02 15:59:00,71.3,32.2,29.90,NE,45,0.9,9.2,24,0.00,,,0.00,WUHU216HW,2013-04-02 19:59:00,
2013-04-02 16:04:00,71.3,33.3,29.90,SSW,203,2.0,8.5,25,0.00,,,0.00,WUHU216HW,2013-04-02 20:04:00,
2013-04-02 16:09:00,72.4,35.2,29.89,SSW,203,0.9,4.7,26,0.00,,,0.00,WUHU216HW,2013-04-02 20:09:00,
2013-04-02 16:14:00,73.1,34.8,29.90,SSW,203,2.2,4.9,25,0.00,,,0.00,WUHU216HW,2013-04-02 20:14:00,
2013-04-02 16:19:00,73.4,34.1,29.89,WNW,293,1.8,4.9,24,0.00,,,0.00,WUHU216HW,2013-04-02 20:19:00,
2013-04-02 16:24:00,73.4,33.1,29.89,SW,225,3.8,6.9,23,0.00,,,0.00,WUHU216HW,2013-04-02 20:24:00,
2013-04-02 16:29:00,73.3,32.0,29.89,SW,225,1.3,6.9,22,0.00,,,0.00,WUHU216HW,2013-04-02 20:29:00,
2013-04-02 16:34:00,72.7,31.4,29.90,WSW,248,2.9,6.0,22,0.00,,,0.00,WUHU216HW,2013-04-02 20:34:00,
2013-04-02 16:39:00,72.5,31.3,29.89,WSW,248,6.0,6.9,22,0.00,,,0.00,WUHU216HW,2013-04-02 20:39:00,
2013-04-02 16:44:00,73.3,33.0,29.89,South,180,1.1,6.9,23,0.00,,,0.00,WUHU216HW,2013-04-02 20:44:00,
2013-04-02 16:49:00,72.7,30.4,29.89,WSW,248,4.7,7.6,21,0.00,,,0.00,WUHU216HW,2013-04-02 20:49:00,
2013-04-02 16:54:00,70.9,31.0,29.88,WSW,248,1.8,7.6,23,0.00,,,0.00,WUHU216HW,2013-04-02 20:54:00,
2013-04-02 16:59:00,70.9,32.0,29.88,ENE,68,1.8,5.4,24,0.00,,,0.00,WUHU216HW,2013-04-02 20:59:00,
2013-04-02 17:04:00,71.5,32.4,29.88,SSE,158,2.5,4.0,24,0.00,,,0.00,WUHU216HW,2013-04-02 21:04:00,
2013-04-02 17:09:00,71.8,31.7,29.88,WSW,248,3.1,4.3,23,0.00,,,0.00,WUHU216HW,2013-04-02 21:09:00,
2013-04-02 17:14:00,71.3,32.2,29.88,SSW,203,4.0,4.3,24,0.00,,,0.00,WUHU216HW,2013-04-02 21:14:00,
2013-04-02 17:19:00,70.7,32.8,29.88,SW,225,1.8,7.2,25,0.00,,,0.00,WUHU216HW,2013-04-02 21:19:00,
2013-04-02 17:24:00,71.3,33.3,29.88,SW,225,3.1,7.4,25,0.00,,,0.00,WUHU216HW,2013-04-02 21:24:00,
2013-04-02 17:29:00,71.8,33.8,29.88,WSW,248,6.9,7.4,25,0.00,,,0.00,WUHU216HW,2013-04-02 21:29:00,
2013-04-02 17:34:00,72.0,33.8,29.88,SSW,203,3.4,8.9,25,0.00,,,0.00,WUHU216HW,2013-04-02 21:34:00,
2013-04-02 17:39:00,72.5,34.4,29.88,SW,225,4.7,9.8,25,0.00,,,0.00,WUHU216HW,2013-04-02 21:39:00,
2013-04-02 17:44:00,73.1,35.8,29.88,WSW,248,1.1,9.8,26,0.00,,,0.00,WUHU216HW,2013-04-02 21:44:00,
2013-04-02 17:49:00,73.6,36.3,29.88,SSW,203,3.8,5.4,26,0.00,,,0.00,WUHU216HW,2013-04-02 21:49:00,
2013-04-02 17:54:00,73.8,33.4,29.88,SSW,203,8.5,8.5,23,0.00,,,0.00,WUHU216HW,2013-04-02 21:54:00,
2013-04-02 17:59:00,73.3,33.0,29.88,NNW,338,3.4,10.7,23,0.00,,,0.00,WUHU216HW,2013-04-02 21:59:00,
2013-04-02 18:04:00,73.3,33.0,29.88,SSW,203,5.4,10.7,23,0.00,,,0.00,WUHU216HW,2013-04-02 22:04:00,
2013-04-02 18:09:00,72.7,32.5,29.88,WSW,248,4.0,11.4,23,0.00,,,0.00,WUHU216HW,2013-04-02 22:09:00,
2013-04-02 18:14:00,72.0,31.9,29.88,WSW,248,4.7,11.4,23,0.00,,,0.00,WUHU216HW,2013-04-02 22:14:00,
2013-04-02 18:19:00,70.9,32.0,29.88,WSW,248,5.4,10.5,24,0.00,,,0.00,WUHU216HW,2013-04-02 22:19:00,
2013-04-02 18:24:00,69.8,31.1,29.88,WSW,248,2.0,9.8,24,0.00,,,0.00,WUHU216HW,2013-04-02 22:24:00,
2013-04-02 18:29:00,69.5,31.8,29.88,SSW,203,2.9,8.1,25,0.00,,,0.00,WUHU216HW,2013-04-02 22:29:00,
2013-04-02 18:34:00,68.9,32.3,29.88,SSW,203,6.3,6.3,26,0.00,,,0.00,WUHU216HW,2013-04-02 22:34:00,
2013-04-02 18:39:00,68.6,32.0,29.88,SW,225,3.8,6.3,26,0.00,,,0.00,WUHU216HW,2013-04-02 22:39:00,
2013-04-02 18:44:00,68.4,32.8,29.88,WSW,248,2.2,6.3,27,0.00,,,0.00,WUHU216HW,2013-04-02 22:44:00,
2013-04-02 18:49:00,68.0,33.5,29.89,NNW,338,2.5,6.9,28,0.00,,,0.00,WUHU216HW,2013-04-02 22:49:00,
2013-04-02 18:54:00,67.7,33.2,29.89,NE,45,0.0,6.9,28,0.00,,,0.00,WUHU216HW,2013-04-02 22:54:00,
2013-04-02 18:59:00,67.3,30.9,29.89,NNE,23,2.0,3.4,26,0.00,,,0.00,WUHU216HW,2013-04-02 22:59:00,
2013-04-02 19:04:00,66.6,30.3,29.89,NE,45,3.4,3.6,26,0.00,,,0.00,WUHU216HW,2013-04-02 23:04:00,
2013-04-02 19:09:00,66.1,31.9,29.89,WNW,293,1.8,6.3,28,0.00,,,0.00,WUHU216HW,2013-04-02 23:09:00,
2013-04-02 19:14:00,65.7,31.5,29.89,NNE,23,2.2,6.3,28,0.00,,,0.00,WUHU216HW,2013-04-02 23:14:00,
2013-04-02 19:19:00,65.2,32.0,29.90,NNE,23,2.7,5.6,29,0.00,,,0.00,WUHU216HW,2013-04-02 23:19:00,
2013-04-02 19:24:00,64.8,32.8,29.90,NNE,23,0.2,4.7,30,0.00,,,0.00,WUHU216HW,2013-04-02 23:24:00,
2013-04-02 19:29:00,64.4,32.4,29.90,ENE,68,2.7,4.7,30,0.00,,,0.00,WUHU216HW,2013-04-02 23:29:00,
2013-04-02 19:35:00,64.1,32.0,29.90,NE,45,2.7,4.7,30,0.00,,,0.00,WUHU216HW,2013-04-02 23:35:00,
2013-04-02 19:40:00,63.7,31.8,29.90,ENE,68,4.3,5.1,30,0.00,,,0.00,WUHU216HW,2013-04-02 23:40:00,
2013-04-02 19:45:00,63.7,31.8,29.90,NNE,23,6.0,6.0,30,0.00,,,0.00,WUHU216HW,2013-04-02 23:45:00,
2013-04-02 19:50:00,63.5,32.3,29.91,ENE,68,3.6,6.0,31,0.00,,,0.00,WUHU216HW,2013-04-02 23:50:00,
2013-04-02 19:55:00,63.4,31.4,29.91,NE,45,3.4,6.9,30,0.00,,,0.00,WUHU216HW,2013-04-02 23:55:00,
2013-04-02 20:00:00,63.0,29.2,29.91,North,0,0.9,7.2,28,0.00,,,0.00,WUHU216HW,2013-04-03 00:00:00,
2013-04-02 20:05:00,62.8,30.0,29.91,North,0,2.9,7.2,29,0.00,,,0.00,WUHU216HW,2013-04-03 00:05:00,
2013-04-02 20:10:00,62.5,29.6,29.91,West,270,0.4,6.0,29,0.00,,,0.00,WUHU216HW,2013-04-03 00:10:00,
2013-04-02 20:15:00,62.3,29.5,29.91,NE,45,1.1,6.0,29,0.00,,,0.00,WUHU216HW,2013-04-03 00:15:00,
2013-04-02 20:20:00,61.9,28.2,29.91,NE,45,2.5,3.4,28,0.00,,,0.00,WUHU216HW,2013-04-03 00:20:00,
2013-04-02 20:25:00,61.6,28.9,29.91,ENE,68,0.4,3.4,29,0.00,,,0.00,WUHU216HW,2013-04-03 00:25:00,
2013-04-02 20:30:00,61.4,27.7,29.92,East,90,1.1,3.4,28,0.00,,,0.00,WUHU216HW,2013-04-03 00:30:00,
2013-04-02 20:35:00,61.0,27.5,29.92,East,90,0.4,4.0,28,0.00,,,0.00,WUHU216HW,2013-04-03 00:35:00,
2013-04-02 20:40:00,60.8,27.3,29.93,North,0,2.2,4.0,28,0.00,,,0.00,WUHU216HW,2013-04-03 00:40:00,
2013-04-02 20:45:00,60.5,26.0,29.93,NE,45,2.9,4.3,27,0.00,,,0.00,WUHU216HW,2013-04-03 00:45:00,
2013-04-02 20:50:00,60.3,25.8,29.93,North,0,1.8,4.3,27,0.00,,,0.00,WUHU216HW,2013-04-03 00:50:00,
2013-04-02 20:55:00,60.1,26.6,29.94,NE,45,0.7,4.3,28,0.00,,,0.00,WUHU216HW,2013-04-03 00:55:00,
2013-04-02 21:00:00,59.9,26.6,29.94,NE,45,1.6,3.1,28,0.00,,,0.00,WUHU216HW,2013-04-03 01:00:00,
2013-04-02 21:05:00,59.8,26.4,29.94,NE,45,0.4,3.1,28,0.00,,,0.00,WUHU216HW,2013-04-03 01:05:00,
2013-04-02 21:10:00,59.4,27.0,29.93,ENE,68,0.7,2.5,29,0.00,,,0.00,WUHU216HW,2013-04-03 01:10:00,
2013-04-02 21:15:00,59.4,27.0,29.94,ENE,68,0.2,1.1,29,0.00,,,0.00,WUHU216HW,2013-04-03 01:15:00,
2013-04-02 21:20:00,59.0,27.7,29.94,ENE,68,1.6,1.6,30,0.00,,,0.00,WUHU216HW,2013-04-03 01:20:00,
2013-04-02 21:25:00,58.9,27.5,29.95,NE,45,0.9,2.0,30,0.00,,,0.00,WUHU216HW,2013-04-03 01:25:00,
2013-04-02 21:30:00,58.7,27.4,29.95,NE,45,0.0,2.0,30,0.00,,,0.00,WUHU216HW,2013-04-03 01:30:00,
2013-04-02 21:35:00,58.5,27.3,29.95,NE,45,2.2,2.5,30,0.00,,,0.00,WUHU216HW,2013-04-03 01:35:00,
2013-04-02 21:40:00,58.3,27.1,29.95,NNE,23,0.0,2.5,30,0.00,,,0.00,WUHU216HW,2013-04-03 01:40:00,
2013-04-02 21:45:00,58.1,26.9,29.96,NE,45,1.1,2.2,30,0.00,,,0.00,WUHU216HW,2013-04-03 01:45:00,
2013-04-02 21:50:00,58.0,26.7,29.96,East,90,1.1,1.6,30,0.00,,,0.00,WUHU216HW,2013-04-03 01:50:00,
2013-04-02 21:55:00,57.8,26.6,29.96,East,90,0.0,1.1,30,0.00,,,0.00,WUHU216HW,2013-04-03 01:55:00,
2013-04-02 22:00:00,57.8,26.6,29.96,East,90,0.0,1.1,30,0.00,,,0.00,WUHU216HW,2013-04-03 02:00:00,
2013-04-02 22:05:00,57.6,26.5,29.96,NNE,23,0.9,1.8,30,0.00,,,0.00,WUHU216HW,2013-04-03 02:05:00,
2013-04-02 22:10:00,57.4,26.3,29.96,NNE,23,0.7,1.8,30,0.00,,,0.00,WUHU216HW,2013-04-03 02:10:00,
2013-04-02 22:15:00,57.2,26.1,29.96,NE,45,1.1,1.1,30,0.00,,,0.00,WUHU216HW,2013-04-03 02:15:00,
2013-04-02 22:20:00,57.1,25.9,29.96,ENE,68,0.4,1.8,30,0.00,,,0.00,WUHU216HW,2013-04-03 02:20:00,
2013-04-02 22:25:00,56.9,25.7,29.96,ENE,68,0.7,1.8,30,0.00,,,0.00,WUHU216HW,2013-04-03 02:25:00,
2013-04-02 22:30:00,56.9,25.7,29.96,ENE,68,2.2,2.2,30,0.00,,,0.00,WUHU216HW,2013-04-03 02:30:00,
2013-04-02 22:35:00,56.5,25.5,29.96,ENE,68,1.1,2.2,30,0.00,,,0.00,WUHU216HW,2013-04-03 02:35:00,
2013-04-02 22:40:00,56.5,25.5,29.96,NE,45,2.0,2.2,30,0.00,,,0.00,WUHU216HW,2013-04-03 02:40:00,
2013-04-02 22:45:00,56.3,26.0,29.97,NNE,23,1.6,2.7,31,0.00,,,0.00,WUHU216HW,2013-04-03 02:45:00,
2013-04-02 22:50:00,56.2,25.8,29.97,NNE,23,4.3,4.3,31,0.00,,,0.00,WUHU216HW,2013-04-03 02:50:00,
2013-04-02 22:55:00,56.2,25.8,29.96,ENE,68,0.9,4.3,31,0.00,,,0.00,WUHU216HW,2013-04-03 02:55:00,
2013-04-02 23:00:00,56.0,24.9,29.96,ENE,68,1.8,4.3,30,0.00,,,0.00,WUHU216HW,2013-04-03 03:00:00,
2013-04-02 23:06:00,55.8,24.9,29.96,ENE,68,2.5,4.0,30,0.00,,,0.00,WUHU216HW,2013-04-03 03:06:00,
2013-04-02 23:11:00,55.8,25.5,29.97,NNE,23,3.1,4.0,31,0.00,,,0.00,WUHU216HW,2013-04-03 03:11:00,
2013-04-02 23:16:00,55.6,25.4,29.97,NE,45,1.1,3.4,31,0.00,,,0.00,WUHU216HW,2013-04-03 03:16:00,
2013-04-02 23:21:00,55.4,24.5,29.97,ENE,68,1.3,3.6,30,0.00,,,0.00,WUHU216HW,2013-04-03 03:21:00,
2013-04-02 23:26:00,55.4,24.5,29.97,NNE,23,1.3,3.6,30,0.00,,,0.00,WUHU216HW,2013-04-03 03:26:00,
2013-04-02 23:31:00,55.3,25.0,29.97,NE,45,1.6,3.6,31,0.00,,,0.00,WUHU216HW,2013-04-03 03:31:00,
2013-04-02 23:36:00,55.1,24.9,29.97,ENE,68,1.1,4.5,31,0.00,,,0.00,WUHU216HW,2013-04-03 03:36:00,
2013-04-02 23:41:00,55.1,24.9,29.97,ENE,68,2.2,4.5,31,0.00,,,0.00,WUHU216HW,2013-04-03 03:41:00,
2013-04-02 23:46:00,54.9,25.5,29.98,NE,45,1.1,4.0,32,0.00,,,0.00,WUHU216HW,2013-04-03 03:46:00,
2013-04-02 23:52:00,54.7,26.0,29.98,East,90,1.8,3.8,33,0.00,,,0.00,WUHU216HW,2013-04-03 03:52:00,
2013-04-02 23:57:00,54.4,25.7,29.98,ENE,68,1.6,3.8,33,0.00,,,0.00,WUHU216HW,2013-04-03 03:57:00,